Change the Weather History Date:

Wednesday, April 16, 2014

  Actual Average Record
Temperature  
Mean Temperature 62 °F -  
Max Temperature 77 °F 75 °F 91 °F (2013)
Min Temperature 47 °F 53 °F 35 °F (2011)
Degree Days  
Heating Degree Days 4    
Growing Degree Days 12 (Base 50)    
Moisture  
Dew Point 25 °F    
Average Humidity 26    
Maximum Humidity 41    
Minimum Humidity 17    
Precipitation  
Precipitation 0.02 in - - ()
Sea Level Pressure  
Sea Level Pressure 29.84 in    
Wind  
Wind Speed 17 mph (South)    
Max Wind Speed 30 mph    
Max Gust Speed 43 mph    
Visibility 10 miles    
Events      
Averages and records for this station are not official NWS values.
T = Trace of Precipitation, MM = Missing Value Source: NWS Daily Summary

Daily Weather History Graph

Daily Weather History Graph

Search for Another Location

Airport or City:

Trip Planner

Search our weather history database for the weather conditions in past years. The results will help you decide how hot, cold, wet, or windy it might be!

Date:

Astronomy

Apr. 16, 2014 Rise Set
Actual Time 7:08 AM CDT 8:09 PM CDT
Civil Twilight 6:43 AM CDT 8:35 PM CDT
Nautical Twilight 6:13 AM CDT 9:05 PM CDT
Astronomical Twilight 5:42 AM CDT 9:36 PM CDT
Moon 9:50 PM CDT (4/16) 8:01 AM CDT (4/16)
Length of Visible Light 13h 51m
Length of Day
13h 00m
Full, 98% of the Moon is Illuminated
Apr 16
Full
Apr 22
Last Quarter
Apr 29
New
May 6
First Quarter
May 14
Full

Hourly Weather History & Observations

Time (CDT) Temp. Dew Point Humidity Pressure Visibility Wind Dir Wind Speed Gust Speed Precip Events Conditions
12:58 AM 49.3 °F 16.5 °F 27% 29.96 in 10.0 mi SSE 12.7 mph - N/A   Clear
1:58 AM 50.5 °F 18.7 °F 28% 29.95 in 10.0 mi South 10.4 mph - N/A   Clear
2:58 AM 51.8 °F 19.9 °F 29% 29.91 in 10.0 mi South 11.5 mph 20.7 mph N/A   Clear
3:58 AM 51.4 °F 18.7 °F 28% 29.88 in 10.0 mi South 15.0 mph 23.0 mph N/A   Clear
4:58 AM 50.2 °F 20.1 °F 31% 29.89 in 10.0 mi South 18.4 mph 26.5 mph N/A   Clear
5:58 AM 48.2 °F 19.2 °F 32% 29.91 in 10.0 mi South 12.7 mph - N/A   Clear
6:58 AM 47.1 °F 19.2 °F 33% 29.90 in 10.0 mi South 13.8 mph - N/A   Clear
7:58 AM 49.1 °F 18.3 °F 30% 29.91 in 10.0 mi South 18.4 mph 26.5 mph N/A   Clear
8:58 AM 52.0 °F 19.6 °F 28% 29.90 in 10.0 mi South 29.9 mph 40.3 mph N/A   Clear
9:58 AM 55.9 °F 19.9 °F 25% 29.89 in 10.0 mi South 29.9 mph 42.6 mph 0.02 in   Clear
10:58 AM 59.2 °F 21.9 °F 24% 29.93 in 10.0 mi South 23.0 mph 31.1 mph N/A   Clear
11:58 AM 63.1 °F 24.6 °F 23% 29.92 in 10.0 mi South 23.0 mph - N/A   Partly Cloudy
12:58 PM 65.7 °F 26.1 °F 22% 29.87 in 10.0 mi South 21.9 mph 31.1 mph N/A   Partly Cloudy
1:58 PM 69.3 °F 28.2 °F 22% 29.83 in 10.0 mi South 25.3 mph 32.2 mph N/A   Partly Cloudy
2:58 PM 72.7 °F 28.6 °F 20% 29.79 in 10.0 mi South 20.7 mph 29.9 mph N/A   Clear
3:58 PM 75.7 °F 29.8 °F 19% 29.75 in 10.0 mi South 23.0 mph 29.9 mph N/A   Clear
4:58 PM 76.8 °F 29.3 °F 17% 29.72 in 10.0 mi South 23.0 mph 29.9 mph N/A   Clear
5:58 PM 76.6 °F 29.1 °F 17% 29.72 in 10.0 mi South 19.6 mph 31.1 mph N/A   Clear
6:58 PM 75.4 °F 29.7 °F 19% 29.72 in 10.0 mi SSE 19.6 mph 28.8 mph N/A   Clear
7:58 PM 71.6 °F 30.0 °F 21% 29.74 in 10.0 mi SSE 16.1 mph - N/A   Clear
8:58 PM 68.0 °F 31.3 °F 26% 29.76 in 10.0 mi SE 17.3 mph - N/A   Clear
9:58 PM 65.5 °F 32.9 °F 30% 29.80 in 10.0 mi SSE 19.6 mph - N/A   Clear
10:58 PM 63.1 °F 34.3 °F 34% 29.81 in 10.0 mi SSE 17.3 mph 24.2 mph N/A   Clear
11:58 PM 61.7 °F 37.4 °F 41% 29.81 in 10.0 mi SSE 16.1 mph 24.2 mph N/A   Clear